Spokane Felts, WA

11:52 AM PDT on September 23, 2017 (GMT -0700)
Felts

Weather History for KSFF - July, 2013

Change the Weather History Date:

Monday, July 8, 2013

  Actual Average Record
Temperature  
Mean Temperature 73 °F 68 °F  
Max Temperature 85 °F 84 °F 98 °F (2012)
Min Temperature 60 °F 53 °F 46 °F (2004)
Degree Days  
Heating Degree Days 0 1  
Month to date heating degree days 0 11  
Since 1 June heating degree days 105 129  
Since 1 July heating degree days 0 11  
Cooling Degree Days 8 5  
Month to date cooling degree days 82 31  
Year to date cooling degree days 165 78  
Since 1 June cooling degree days 139 71  
Growing Degree Days 22 (Base 50)    
Moisture  
Dew Point 48 °F    
Average Humidity 49    
Maximum Humidity 69    
Minimum Humidity 28    
Precipitation  
Precipitation T in 0.03 in 0.21 in (2005)
Month to date precipitation T 0.31  
Year to date precipitation 7.96 9.53  
Sea Level Pressure  
Sea Level Pressure 29.92 in    
Wind  
Wind Speed 3 mph (NNE)    
Max Wind Speed 16 mph    
Max Gust Speed 24 mph    
Visibility 10 miles    
Events Thunderstorm    
T = Trace of Precipitation, MM = Missing Value Source: NWS Daily Summary

Daily Weather History Graph

Daily Weather History Graph

Search for Another Location

Airport or City:

Trip Planner

Search our weather history database for the weather conditions in past years. The results will help you decide how hot, cold, wet, or windy it might be!

Date:

Astronomy

Jul. 08, 2013 Rise Set
Actual Time 5:00 AM PDT 8:47 PM PDT
Civil Twilight 4:20 AM PDT 9:27 PM PDT
Nautical Twilight 3:26 AM PDT 10:21 PM PDT
Astronomical Twilight 2:07 AM PDT 11:39 PM PDT
Moon 5:41 AM PDT (7/8) 8:43 PM PDT (7/8)
Length of Visible Light 17h 06m
Length of Day
15h 47m
New Moon, 0% of the Moon is Illuminated
Jul 8
New Moon
Jul 15
First Quarter
Jul 22
Full
Jul 29
Last Quarter
Aug 6
New

Hourly Weather History & Observations

Time (PDT) Temp. Dew Point Humidity Pressure Visibility Wind Dir Wind Speed Gust Speed Precip Events Conditions
12:53 AM 70.0 °F 46.0 °F 42% 29.79 in 10.0 mi Variable 3.5 mph - N/A   Clear
1:53 AM 70.0 °F 46.0 °F 42% 29.80 in 10.0 mi Calm Calm - N/A   Clear
2:53 AM 68.0 °F 46.0 °F 45% 29.80 in 10.0 mi ESE 4.6 mph - N/A   Clear
3:53 AM 69.1 °F 45.0 °F 42% 29.80 in 10.0 mi North 6.9 mph 17.3 mph N/A   Clear
4:53 AM 62.1 °F 48.0 °F 60% 29.82 in 10.0 mi Calm Calm - N/A   Clear
5:53 AM 61.0 °F 48.9 °F 64% 29.85 in 10.0 mi ESE 3.5 mph - N/A   Clear
6:53 AM 64.0 °F 51.1 °F 63% 29.86 in 10.0 mi Calm Calm - N/A   Partly Cloudy
7:53 AM 66.9 °F 51.1 °F 57% 29.88 in 10.0 mi NNE 3.5 mph - N/A   Partly Cloudy
8:53 AM 69.1 °F 48.9 °F 49% 29.91 in 10.0 mi Calm Calm - N/A   Mostly Cloudy
9:53 AM 72.0 °F 48.9 °F 44% 29.92 in 10.0 mi Calm Calm - N/A   Scattered Clouds
10:53 AM 75.9 °F 48.9 °F 38% 29.93 in 10.0 mi ESE 5.8 mph - N/A   Scattered Clouds
11:53 AM 78.1 °F 48.0 °F 35% 29.94 in 10.0 mi West 5.8 mph - N/A   Partly Cloudy
12:53 PM 81.0 °F 45.0 °F 28% 29.93 in 10.0 mi Variable 4.6 mph - N/A   Partly Cloudy
1:53 PM 82.9 °F 46.0 °F 27% 29.93 in 10.0 mi SSW 9.2 mph 16.1 mph N/A Thunderstorm Thunderstorm
2:19 PM 80.6 °F 48.2 °F 32% 29.98 in 10.0 mi Calm Calm - N/A   Mostly Cloudy
2:53 PM 82.9 °F 48.0 °F 29% 29.92 in 10.0 mi Calm Calm - N/A   Mostly Cloudy
3:53 PM 81.0 °F 45.0 °F 28% 29.94 in 10.0 mi West 6.9 mph 17.3 mph N/A   Clear
4:53 PM 80.1 °F 45.0 °F 29% 29.96 in 10.0 mi NNW 10.4 mph 20.7 mph N/A   Scattered Clouds
5:53 PM 79.0 °F 48.0 °F 34% 29.97 in 10.0 mi NNE 5.8 mph - 0.00 in   Clear
6:53 PM 79.0 °F 46.9 °F 32% 29.98 in 10.0 mi Variable 3.5 mph - N/A   Clear
7:53 PM 75.9 °F 50.0 °F 40% 29.99 in 10.0 mi Calm Calm - N/A   Clear
8:53 PM 66.9 °F 50.0 °F 54% 30.01 in 10.0 mi NNE 3.5 mph - N/A   Clear
9:53 PM 63.0 °F 48.9 °F 60% 30.04 in 10.0 mi Calm Calm - N/A   Clear
10:53 PM 63.0 °F 51.1 °F 65% 30.04 in 10.0 mi Calm Calm - N/A   Clear
11:53 PM 61.0 °F 50.0 °F 67% 30.06 in 10.0 mi NE 3.5 mph - N/A   Clear